User: anonymous   Login
Location: Fontevrault
(47.1823°N, 0.0493°E)
Time: 22:32:37
(UTC+00:00)
Language:

Cosmos 1953 - Orbit

View from above orbital plane
View from above orbital plane
View from above satellite
View from above satellite

Ground track
Ground track

The orbit data is extracted from the following two-line orbital elements,

1 19210U 88050A   21266.90350052  .00000998  00000-0  65717-4 0  9991
2 19210  82.5175 319.8441 0012741 340.2966  19.7767 15.06387927791426
Epoch (UTC): 23 September 2021 21:41:02
Eccentricity: 0.0012741
inclination: 82.5175°
perigee height: 538 km
apogee height: 556 km
right ascension of ascending node: 319.8441°
argument of perigee: 340.2966°
revolutions per day: 15.06387927
mean anomaly at epoch: 19.7767°
orbit number at epoch: 79142

The dashed part of the orbit path shows where the satellite is in the earth's shadow,  

DLR